Location: Berg
(47.2344°N, 9.5296°E)
Time: 22:14:12
(UTC+00:00)

Cosmos 44 - Pass Details

Date: 24 January 2021
Orbit: 572 x 790 km, 65.1° (Epoch: 03 March)

Event Time Altitude Azimuth Distance (km) Brightness Sun altitude
Rises 18:20:38 0° 228° (SW) 2,981 7.4 -21.6°
Reaches altitude 10° 18:22:54 10° 232° (SW) 2,107 6.5 -22.0°
Maximum altitude 18:27:38 58° 312° (NW) 824 3.8 -22.8°
Enters shadow 18:29:50 32° 18° (NNE) 1,233 4.3 -23.2°
